[[{"header":{"parameterUnit":"m.s-1","parameterCategory":1,"la1":30.2991,"la2":30.254,"lo1":-89.0895,"lo2":-89.0444,"dy":0.0017,"dx":0.0017,"nx":28,"ny":28,"refTime":"2024-04-04T03:00:00:Z","depth":0,"parameterNumber":2,"parameterNumberName":"U-component_of_WINDS"},"data":[0,0,0,0,0,0,0,0,0,0,0,0,0,0,0,0,0,0,0,0,0,0,0,0,0,0,0,0,0,0,0,0,0,0,0,0,0,0,0,0,0,0,0,0,0,0,0,0,0,0,0,0,0,0,0,0,0,0,0.242,0.2421,0,0.2495,0.2496,0.2497,0.2486,0.2484,0.2483,0.2482,0.2561,0.2564,0.2567,0,0,0,0,0,0,0,0,0,0,0,0,0,0.227,0.2272,0.242,0.2421,0.2422,0.2495,0.2496,0.2497,0.2486,0.2484,0.2483,0.2481,0.256,0.2564,0.2568,0,0,0,0,0,0,0,0,0,0,0,0,0,0.2339,0.2273,0.242,0.2425,0.2426,0.2495,0.2496,0.2497,0.2486,0.2484,0.2482,0.248,0.2559,0.2563,0.2568,0.2637,0,0,0.2583,0.2585,0,0,0,0,0,0,0,0,0.2335,0.2344,0.2423,0.2425,0.2426,0.2479,0.2472,0.2544,0.2487,0.2463,0.2482,0.2479,0.2535,0.2542,0.256,0.2641,0.2644,0.2584,0.2587,0.2589,0.259,0,0,0,0,0,0,0,0.233,0.2341,0.245,0.2424,0.2426,0.2425,0.2432,0.2486,0.2509,0.2465,0.2465,0.2474,0.2536,0.2556,0.2562,0.2645,0.2584,0.2588,0.2591,0.2593,0.2788,0.279,0,0,0,0,0,0,0.2324,0.2337,0.2447,0.2452,0.2375,0.2429,0.2437,0.2464,0.2509,0.2514,0.2475,0.2473,0.2548,0.2556,0.2565,0.265,0.2589,0.2593,0.2596,0.2786,0.2789,0.2791,0,0,0,0,0,0,0.232,0.2334,0.2444,0.2395,0.2408,0.2433,0.2463,0.2467,0.2486,0.2516,0.252,0.2491,0.2547,0.2558,0.262,0.2652,0.2596,0.26,0.2783,0.2787,0.279,0.2819,0,0,0,0,0,0,0.2316,0.2332,0.2358,0.2395,0.2411,0.2497,0.2465,0.2469,0.2495,0.2492,0.2532,0.2537,0.2546,0.2612,0.2624,0.2658,0.2604,0.278,0.2785,0.2789,0.2815,0.2823,0.2829,0,0,0,0,0,0.2311,0.2363,0.2359,0.2373,0.2444,0.2499,0.2508,0.2517,0.2497,0.2524,0.2543,0.2536,0.2647,0.2619,0.2632,0.2668,0.2778,0.2784,0.2788,0.2812,0.2821,0.2829,0,0,0,0,0,0,0.233,0.2368,0.2364,0.243,0.2461,0.2497,0.253,0.2527,0.2564,0.2561,0.2571,0.258,0.2643,0.2661,0.263,0.2738,0.271,0.2718,0.2723,0.2732,0.2739,0.2734,0.2608,0,0,0,0,0,0.2342,0.2382,0.2414,0.2469,0.2485,0.2505,0.2529,0.2534,0.2567,0.258,0.2604,0.2637,0.2679,0.2707,0.2747,0.2818,0.2827,0.2849,0.2856,0.2862,0.2869,0.2909,0.292,0.2807,0.2807,0.2807,0,0,0.2366,0.2393,0.2418,0.2474,0.2498,0.2541,0.2516,0.2562,0.2595,0.2587,0.2647,0.2666,0.2703,0.277,0.28,0.2787,0.2902,0.2868,0.2873,0.2877,0.2915,0.2926,0.2935,0.2811,0.281,0.281,0,0,0.2434,0.2457,0.2506,0.2532,0.2569,0.2582,0.2594,0.2631,0.2643,0.2703,0.2698,0.2737,0.281,0.2837,0.2861,0.294,0.2935,0.2953,0.299,0.3029,0.3038,0.3046,0.3075,0.3086,0.296,0.296,0.296,0,0.246,0.2524,0.2532,0.2579,0.2605,0.26,0.265,0.2675,0.2724,0.2742,0.2727,0.2818,0.2843,0.2917,0.2936,0.2955,0.297,0.2948,0.3036,0.3044,0.3052,0.308,0.3091,0.2962,0.2962,0.2961,0.2961,0,0.2555,0.2599,0.2635,0.2682,0.2711,0.276,0.2777,0.2806,0.2809,0.2824,0.2886,0.2916,0.2963,0.2981,0.2983,0.3055,0.3046,0.3033,0.3006,0.3064,0.3091,0.3102,0.2965,0.2964,0.2963,0.2963,0,0,0.2635,0.2687,0.27,0.2722,0.2764,0.2799,0.2848,0.2894,0.2919,0.2954,0.2996,0.3058,0.3047,0.3074,0.308,0.3114,0.3176,0.3097,0.3098,0.3112,0.3259,0.3268,0.3281,0.3173,0.3175,0.3177,0.3256,0,0.2707,0.2793,0.2803,0.288,0.2922,0.2919,0.2962,0.2993,0.3009,0.3047,0.3065,0.311,0.3091,0.3107,0.3141,0.3162,0.3206,0.3156,0.3214,0.3216,0.3205,0.3294,0.3304,0.3377,0.3266,0.3268,0.3269,0,0.2801,0.2839,0.292,0.2957,0.2975,0.3014,0.3057,0.3094,0.313,0.3139,0.317,0.3172,0.3224,0.3194,0.3267,0.3233,0.3257,0.3271,0.3274,0.328,0.3246,0.3303,0.3401,0.3412,0.3286,0.3284,0.3283,0,0.2853,0.2923,0.2981,0.3,0.3045,0.3072,0.3093,0.3126,0.3154,0.3192,0.321,0.3254,0.3279,0.3314,0.3328,0.3305,0.3401,0.3372,0.3411,0.3411,0.3431,0.3429,0.3534,0.3446,0.3446,0.3446,0.3446,0,0.2932,0.2982,0.3005,0.3041,0.3097,0.3109,0.3165,0.3184,0.3215,0.3255,0.3255,0.3293,0.331,0.3351,0.3363,0.3422,0.3433,0.3443,0.3445,0.3443,0.3442,0.3459,0.3454,0.3449,0.3448,0.3448,0.3447,0,0.2998,0.3016,0.3079,0.3117,0.3127,0.3168,0.32,0.3236,0.3252,0.3303,0.3316,0.3341,0.339,0.3408,0.3467,0.3475,0.3544,0.3542,0.3531,0.3532,0.357,0.3566,0.369,0.3707,0.3607,0.3608,0.3609,0,0.3048,0.3086,0.3128,0.3155,0.3176,0.3219,0.3247,0.3261,0.329,0.3335,0.3365,0.3413,0.3453,0.3531,0.3555,0.3601,0.36,0.3641,0.3607,0.3604,0.3602,0.3599,0.3604,0.3647,0.3648,0.3649,0.3649,0,0.3133,0.3141,0.3181,0.3225,0.3258,0.3293,0.3328,0.335,0.3369,0.3402,0.3452,0.3482,0.3543,0.3591,0.3638,0.366,0.3659,0.366,0.3671,0.3669,0.3662,0.3667,0.3548,0.3657,0.3656,0.3655,0.3655,0.3655,0.3193,0.3228,0.3263,0.3308,0.3336,0.3368,0.3403,0.3424,0.3465,0.3516,0.3522,0.3575,0.3612,0.3675,0.3699,0.3742,0.3731,0.3748,0.3752,0.3756,0.3759,0.3655,0.375,0.375,0.375,0.375,0.375,0,0.3279,0.3302,0.3344,0.3392,0.3428,0.3423,0.3461,0.3492,0.3539,0.3573,0.3612,0.3669,0.3717,0.3745,0.3793,0.3822,0.3823,0.3834,0.3832,0.3838,0.3765,0.3751,0.3833,0.3833,0.3833,0.3833,0.3833,0.3833,0.3328,0.3387,0.3399,0.3471,0.3494,0.3546,0.3569,0.3599,0.3626,0.3691,0.373,0.3748,0.3781,0.3831,0.3875,0.3882,0.39,0.3913,0.392,0.3851,0.3843,0.3834,0.3821,0.3917,0.3917,0.3988,0.3989,0.399]},{"header":{"parameterUnit":"m.s-1","parameterCategory":1,"la1":30.2991,"la2":30.254,"lo1":-89.0895,"lo2":-89.0444,"dy":0.0017,"dx":0.0017,"nx":28,"ny":28,"refTime":"2024-04-04T03:00:00:Z","depth":0,"parameterNumber":3,"parameterNumberName":"V-component_of_WINDS"},"data":[0,0,0,0,0,0,0,0,0,0,0,0,0,0,0,0,0,0,0,0,0,0,0,0,0,0,0,0,0,0,0,0,0,0,0,0,0,0,0,0,0,0,0,0,0,0,0,0,0,0,0,0,0,0,0,0,0,0,-1.5724,-1.5724,0,-1.5733,-1.5733,-1.5733,-1.5775,-1.5776,-1.5777,-1.5778,-1.5784,-1.5783,-1.5782,0,0,0,0,0,0,0,0,0,0,0,0,0,-1.5741,-1.5741,-1.5724,-1.5724,-1.5725,-1.5733,-1.5733,-1.5734,-1.5775,-1.5776,-1.5777,-1.5778,-1.5784,-1.5783,-1.5782,0,0,0,0,0,0,0,0,0,0,0,0,0,-1.574,-1.5741,-1.5724,-1.5746,-1.5748,-1.5733,-1.5733,-1.5734,-1.5775,-1.5776,-1.5778,-1.5779,-1.5784,-1.5783,-1.5782,-1.5745,0,0,-1.5778,-1.5778,0,0,0,0,0,0,0,0,-1.574,-1.574,-1.5743,-1.5745,-1.5747,-1.5755,-1.5741,-1.5737,-1.5774,-1.5765,-1.5778,-1.578,-1.5773,-1.5772,-1.5771,-1.5745,-1.5746,-1.5778,-1.5778,-1.5777,-1.5777,0,0,0,0,0,0,0,-1.574,-1.5739,-1.5728,-1.5743,-1.5746,-1.5755,-1.5757,-1.5741,-1.576,-1.5766,-1.5769,-1.5769,-1.5774,-1.5772,-1.5771,-1.5746,-1.5778,-1.5777,-1.5776,-1.5776,-1.5691,-1.569,0,0,0,0,0,0,-1.5738,-1.5739,-1.5728,-1.5728,-1.5747,-1.5754,-1.5755,-1.5751,-1.576,-1.5763,-1.5768,-1.5771,-1.5773,-1.5772,-1.5771,-1.5729,-1.5777,-1.5776,-1.5775,-1.5693,-1.5691,-1.5689,0,0,0,0,0,0,-1.5738,-1.5736,-1.5727,-1.5735,-1.5734,-1.5752,-1.5746,-1.575,-1.5748,-1.5762,-1.5766,-1.5762,-1.5774,-1.5773,-1.5752,-1.573,-1.5775,-1.5774,-1.5695,-1.5692,-1.569,-1.5643,0,0,0,0,0,0,-1.5738,-1.5736,-1.5722,-1.5734,-1.5734,-1.5707,-1.5745,-1.5749,-1.5746,-1.575,-1.5758,-1.576,-1.5775,-1.5753,-1.5751,-1.5729,-1.5773,-1.5697,-1.5694,-1.5691,-1.5646,-1.5639,-1.5633,0,0,0,0,0,-1.5739,-1.5708,-1.5721,-1.572,-1.5717,-1.5706,-1.5706,-1.5724,-1.5744,-1.573,-1.574,-1.576,-1.5733,-1.5751,-1.5748,-1.5725,-1.5698,-1.5694,-1.5691,-1.5649,-1.5641,-1.5633,0,0,0,0,0,0,-1.5691,-1.571,-1.5725,-1.5697,-1.57,-1.5713,-1.5696,-1.5714,-1.5711,-1.5714,-1.5737,-1.5738,-1.5713,-1.5718,-1.5737,-1.5691,-1.5719,-1.5715,-1.5688,-1.568,-1.5674,-1.5672,-1.5772,0,0,0,0,0,-1.5678,-1.5669,-1.5685,-1.5659,-1.566,-1.5678,-1.5674,-1.5688,-1.5691,-1.5692,-1.57,-1.5702,-1.5694,-1.5688,-1.5681,-1.5649,-1.565,-1.5632,-1.5625,-1.562,-1.5615,-1.5598,-1.559,-1.5678,-1.5678,-1.5678,0,0,-1.5649,-1.5659,-1.5651,-1.565,-1.5653,-1.5642,-1.5678,-1.5665,-1.5656,-1.569,-1.567,-1.5676,-1.568,-1.5652,-1.5641,-1.5655,-1.5592,-1.5615,-1.5611,-1.5609,-1.5594,-1.5585,-1.5578,-1.5675,-1.5676,-1.5676,0,0,-1.5592,-1.5598,-1.5577,-1.5581,-1.5587,-1.56,-1.5595,-1.5606,-1.5612,-1.5593,-1.5618,-1.5609,-1.5594,-1.5596,-1.5594,-1.554,-1.5558,-1.5538,-1.5501,-1.5485,-1.5478,-1.5472,-1.5451,-1.5444,-1.5533,-1.5533,-1.5533,0,-1.5555,-1.554,-1.5564,-1.5549,-1.5547,-1.558,-1.5558,-1.5561,-1.5564,-1.5562,-1.5579,-1.5562,-1.5567,-1.554,-1.5527,-1.5526,-1.552,-1.5535,-1.5477,-1.5471,-1.5466,-1.5447,-1.5439,-1.5531,-1.5531,-1.5531,-1.5531,0,-1.5494,-1.5483,-1.5466,-1.547,-1.5467,-1.5448,-1.5469,-1.5463,-1.5479,-1.549,-1.547,-1.5478,-1.5473,-1.5469,-1.5483,-1.5445,-1.5453,-1.5473,-1.5502,-1.5455,-1.5437,-1.543,-1.5527,-1.5528,-1.5529,-1.5529,0,0,-1.5403,-1.5423,-1.5415,-1.5418,-1.5428,-1.542,-1.5404,-1.5402,-1.5395,-1.5398,-1.5384,-1.5373,-1.5392,-1.539,-1.5406,-1.5392,-1.5347,-1.5414,-1.5414,-1.54,-1.5305,-1.5288,-1.5279,-1.5361,-1.536,-1.5359,-1.5304,0,-1.5347,-1.532,-1.5342,-1.5312,-1.5302,-1.5334,-1.532,-1.5325,-1.5335,-1.5328,-1.534,-1.5331,-1.5358,-1.5357,-1.5345,-1.5355,-1.5328,-1.536,-1.5347,-1.5346,-1.5342,-1.527,-1.5251,-1.5199,-1.5297,-1.5296,-1.5295,0,-1.5276,-1.5277,-1.5245,-1.5259,-1.5256,-1.5243,-1.5243,-1.5236,-1.5243,-1.5251,-1.5251,-1.5271,-1.5256,-1.5286,-1.5265,-1.5286,-1.5283,-1.5288,-1.5286,-1.5283,-1.5316,-1.5263,-1.5183,-1.5174,-1.5285,-1.5286,-1.5286,0,-1.5211,-1.5204,-1.5185,-1.5186,-1.5202,-1.5192,-1.5198,-1.5206,-1.5204,-1.5204,-1.5202,-1.52,-1.5198,-1.5196,-1.5215,-1.5236,-1.5191,-1.5223,-1.5197,-1.5196,-1.5184,-1.5184,-1.51,-1.5185,-1.5185,-1.5186,-1.5186,0,-1.5144,-1.5123,-1.5156,-1.5143,-1.5121,-1.5147,-1.5125,-1.5134,-1.5142,-1.5131,-1.516,-1.5149,-1.5176,-1.5168,-1.5183,-1.5163,-1.5163,-1.5169,-1.5172,-1.5165,-1.5163,-1.516,-1.5164,-1.5183,-1.5184,-1.5184,-1.5185,0,-1.5066,-1.5087,-1.5068,-1.5086,-1.509,-1.5073,-1.5088,-1.5077,-1.5091,-1.5077,-1.5076,-1.5097,-1.509,-1.5109,-1.5105,-1.5115,-1.5086,-1.5096,-1.5083,-1.5086,-1.5058,-1.5059,-1.4967,-1.4956,-1.505,-1.5049,-1.5049,0,-1.502,-1.5005,-1.5023,-1.5018,-1.5024,-1.5016,-1.5015,-1.5041,-1.5038,-1.5045,-1.5033,-1.5029,-1.5026,-1.5013,-1.5028,-1.5025,-1.5034,-1.5002,-1.5033,-1.5026,-1.5032,-1.5031,-1.5029,-1.4994,-1.4993,-1.4992,-1.4992,0,-1.4937,-1.4949,-1.4946,-1.4946,-1.4944,-1.4945,-1.4949,-1.4944,-1.4972,-1.4967,-1.4961,-1.4959,-1.4956,-1.4951,-1.4951,-1.4957,-1.4978,-1.4982,-1.4976,-1.4966,-1.4959,-1.4961,-1.5063,-1.4983,-1.4984,-1.4985,-1.4985,-1.4986,-1.4872,-1.4861,-1.4871,-1.4867,-1.4873,-1.4876,-1.4867,-1.4881,-1.4877,-1.4877,-1.4893,-1.4883,-1.4892,-1.4895,-1.4899,-1.4892,-1.4906,-1.4897,-1.4894,-1.4891,-1.4886,-1.4962,-1.4892,-1.4892,-1.4893,-1.4893,-1.4893,0,-1.4789,-1.4798,-1.4794,-1.4799,-1.4796,-1.482,-1.4825,-1.482,-1.4812,-1.4819,-1.4817,-1.481,-1.4806,-1.4821,-1.482,-1.4811,-1.482,-1.4809,-1.4808,-1.4809,-1.4874,-1.4879,-1.4801,-1.4801,-1.4801,-1.4801,-1.4801,-1.4801,-1.4745,-1.4726,-1.474,-1.4725,-1.4734,-1.4726,-1.4727,-1.473,-1.4736,-1.4728,-1.4725,-1.4736,-1.4746,-1.4746,-1.4743,-1.4748,-1.4745,-1.473,-1.4737,-1.4796,-1.4805,-1.4813,-1.4818,-1.4729,-1.4729,-1.4674,-1.4673,-1.4673]}]]